AirNav   Air Wisconsin Up To $57,000 Bonus
 
 752 users online  

89Y Maidens Airport
Williamston, Michigan, USA

GOING TO WILLIAMSTON?


FAA INFORMATION EFFECTIVE 07 NOVEMBER 2019

Location

FAA Identifier: 89Y
Lat/Long: 42-44-01.9000N 084-19-19.6000W
42-44.031667N 084-19.326667W
42.7338611,-84.3221111
(estimated)
Elevation: 920 ft. / 280 m (estimated)
Variation: 05W (1985)
From city: 3 miles NW of WILLIAMSTON, MI
Time zone: UTC -5 (UTC -4 during Daylight Saving Time)
Zip code: 48895

Airport Operations

Airport use: Open to the public
Activation date: 07/1995
Control tower: no
ARTCC: CLEVELAND CENTER
FSS: LANSING FLIGHT SERVICE STATION
NOTAMs facility: LAN (NOTAM-D service available)
Attendance: UNATNDD
Wind indicator: yes
Segmented circle: no

Airport Communications

CTAF: 122.9
WX AWOS-3 at TEW (11 nm SW): 119.425 (517-676-5607)
WX ASOS at LAN (12 nm W): 119.75 (517-908-8494)
WX AWOS-3 at OZW (16 nm SE): 118.875 (517-546-4450)
WX AWOS-3 at RNP (18 nm NE): 118.025 (989-729-2967)

Nearby radio navigation aids

VOR radial/distance  VOR name  Freq  Var
FNTr247/28.9FLINT VORTAC116.9006W
JXNr017/29.1JACKSON VOR/DME109.6005W
SVMr304/37.6SALEM VORTAC114.3003W

Airport Services

Runway Information

Runway 9/27

Dimensions: 2435 x 100 ft. / 742 x 30 m
RY 09/27 SLOPES DOWN TO THE W.
Surface: turf, in fair condition
Runway edge markings: 09/27 THLDS & DSPLCD THLDS MKD WITH THREE 3 FT YELLOW CONES EACH SIDE.
RUNWAY 9  RUNWAY 27
Latitude: 42-44.033333N42-44.030000N
Longitude: 084-19.598333W084-19.055000W
Elevation: 895.0 ft.916.0 ft.
Traffic pattern: leftleft
Runway heading: 095 magnetic, 090 true275 magnetic, 270 true
Obstructions: 43 ft. trees, 114 ft. from runway, 83 ft. left of centerline, 2:1 slope to clear
22:1 BASED ON STRAIGHT OUT.
35 ft. pline, marked
APCH RATIO 20:1 AT DSPLCD THLD; 63 FT TREES, 1260 FT DSTC, 0B.

Airport Ownership and Management from official FAA records

Ownership: Privately-owned
Owner: JOHN C. MAIDENS
5155 N ZIMMER RD
WILLIAMSTON, MI 48895
Phone 517-655-2453
Manager: JOHN C. MAIDENS
5155 N ZIMMER RD
WILLIAMSTON, MI 48895
Phone 517-655-2453

Airport Operational Statistics

Aircraft based on the field: 1
Single engine airplanes: 1
    
Aircraft operations: avg 23/month *
73% transient general aviation
27% local general aviation
* for 12-month period ending 31 December 2017

Additional Remarks

RY 09 APCH MAY BE OBSTRUCTED BY SEASONAL +8 FT CROPS
FOR CD CTC GREAT LAKES APCH AT 269-459-3345, WHEN APCH CLSD CTC CLEVELAND ARTCC AT 440-774-0490

Instrument Procedures

There are no published instrument procedures at 89Y.

Some nearby airports with instrument procedures:

KTEW - Mason Jewett Field Airport (11 nm SW)
KLAN - Capital Region International Airport (12 nm W)
KOZW - Livingston County Spencer J Hardy Airport (16 nm SE)
KRNP - Owosso Community Airport (18 nm NE)
4D0 - Abrams Municipal Airport (18 nm W)
 
Loc | Ops | Rwys | IFR | FBO | Links
Com | Nav | Svcs | Stats | Notes
Area around 89Y (Maidens Airport)
 
Road maps at: MapQuest Bing Google
 
Aerial photo
No photo
 
Sectional chart

 
Airport distance calculator
Flying to Maidens Airport? Find the distance to fly.

From to 89Y

Sunrise and sunset
Times for 13-Nov-2019
 Local
(UTC-5)
 Zulu
(UTC)
Morning civil twilight06:5711:57
Sunrise07:2812:28
Sunset17:1622:16
Evening civil twilight17:4622:46

Current date and time
Zulu (UTC)  13-Nov-2019 13:09:09
Local (UTC-5)  13-Nov-2019 08:09:09
 
METAR
KTEW 
11nm SW 
131255Z AUTO 20003KT 10SM BKN100 BKN120 M12/M13 A3032 RMK AO2 T11201135
KLAN 
12nm W 
131253Z AUTO 21009KT 10SM OVC100 M11/M14 A3033 RMK AO2 SLP287 T11061144
KOZW 
17nm SE 
131256Z AUTO 19005KT 10SM BKN095 OVC120 M11/M14 A3031 RMK AO2 T11151143
KRNP 
18nm NE 
131256Z AUTO 18004KT 10SM BKN100 BKN110 M09/M12 A3031 RMK AO2 T10911117
TAF
KLAN 
12nm W 
131140Z 1312/1412 18008KT P6SM BKN120 FM131600 18012G20KT P6SM BKN120 FM132200 18010KT P6SM SCT035 BKN100 FM140400 20010KT 3SM -SN BR OVC012
NOTAMs
Click for the latest NOTAMs
NOTAMs are issued by the DoD/FAA and will open in a separate window not controlled by AirNav.

 

 
 

Would you like to see your business listed on this page?

 If your business provides an interesting product or service to pilots, flight crews, aircraft, or users of the Maidens Airport, you should consider listing it here.  To start the listing process, click on the button below
 
Add a business
 

Other Pages about Maidens Airport

Page from the Michigan Airport Directory (PDF)
 
Update a link
 
Copyright © AirNav, LLC. All rights reserved. Privacy Policy  Contact